www.pogodaiklimat.ru

Погода и климат >> Архив погоды >> Россия >> Эвенкия >> Кербо


ПОГОДА в Кербо

  • Прогноз погоды в Кербо
  • Монитор погоды в Кербо

АРХИВ ПОГОДЫ в Кербо

Время (UTC), дата Ветер
(напр.,м/с)
 
Видим.   Явления Облачность Т
(С)
Тd
(С)
f
(%)
Тe
(С)
Тes
(С)
Комфортность P
(гПа)
Po
(гПа)
Тmin
(С)
Tmax
(С)
R
(мм)
R24
(мм)
S
(см)
09 9.07 Ю 1 20 км 9/9 600 м
[Cb cap]
+19.7 +12.8 64 +22 +23 комфорт 1003.5 977.1
12 9.07 Ю 1 20 км 8/4 600 м
[Cu med, cong Ci fib]
+23.2 +12.6 51 +26 +27 жарко 1003.2 977.1 +24.3
15 9.07 ЮВ 1 20 км 6/4 1000 м
[Sc Ac trans]
+17.6 +13.9 79 +19 +19 1004.0 977.4
06 10.07 ЮВ 1 10 км дым 10/4 600 м
[Cb cap Cc]
+26.4 +14.2 47 +29 +36 жарко 1004.5 978.6
09 10.07 Ю 1 10 км дым 10/0 600 м
[Ac trans Cs]
+26.8 +12.4 41 +28 +33 жарко 1004.1 978.2
12 10.07 ЮВ 1 10 км дым 10/3 600 м
[Cu hum Ac trans]
+26.5 +13.5 45 +29 +29 жарко 1003.9 978.0 +27.4
15 10.07 ЮВ 1 10 км дым 8/0 2000 м
[Ac As]
+17.6 +13.0 74 +19 +19 1005.2 978.5
09 11.07 штиль 0 20 км 8/8 600 м
[Cb cap]
+24.2 +13.0 50 +26 +28 жарко 1005.2 979.8
12 11.07 З 2 20 км 9/9 600 м
[Cb cap]
+21.1 +12.9 59 +23 +23 комфорт 1007.8 891.4 +26.5 1
18 11.07 ЮЗ 2 н/о 10/10 1000 м
[Sc]
+14.1 +12.1 88 +14 +14 1010.7 983.6
00 12.07 З 1 20 км 10/10 1000 м
[Sc]
+15.2 +11.7 80 +16 +16 1012.1 985.0 +13.5
06 12.07 СЗ 3 20 км 10/10 600 м
[Cb cap]
+19.7 +13.0 65 +22 +22 комфорт 1015.1 988.3
12 12.07 С 2 20 км ясно +23.5 +10.5 44 +25 +26 комфорт 1015.4 989.0 +24.2
15 12.07 штиль 0 20 км 5/0
[Ac trans Ci fib]
+15.8 +10.3 70 +16 +16 1016.5 989.4
18 12.07 штиль 0 н/о 8/8 1000 м
[Sc]
+8.0 +7.6 97 +7 +7 1017.9 989.9
12 13.07 З 1 20 км 8/3 600 м
[Cu hum Ci fib]
+25.9 +15.3 52 +29 +30 душно 1009.8 983.8 +27.4
15 13.07 СЗ 3 20 км гроза без осадков 10/10
[Cb cap]
+20.7 +17.6 82 +25 +25 комфорт 1010.2 983.7
18 13.07 ЮЗ 1 н/о {гроза} 10/10 600 м
[Cb cap]
+16.2 +14.3 89 +17 +17 1009.2 982.3
12 14.07 С 1 20 км {ливн. осадки} 10/10 600 м
[Cb cap]
+18.8 +16.1 84 +21 +21 комфорт 1008.9 982.3 +20.9 2
15 14.07 штиль 0 10 км дым 10/10 600 м
[Cb cap]
+15.2 +14.9 98 +15 +15 1010.2 983.2
18 14.07 штиль 0 н/о 10/10 600 м
[Cb cap]
+13.7 +12.1 90 +13 +13 1011.3 983.9
12 15.07 СВ 3 20 км 8/5 600 м
[Sc diur, vesp Ac trans Ci fib]
+26.9 +14.4 46 +29 +30 жарко 1011.6 985.6 +28.3
15 15.07 СВ 1 20 км 5/3 1000 м
[Sc Ci fib]
+20.5 +13.2 63 +24 +24 комфорт 1013.4 986.7
18 15.07 штиль 0 н/о 3/0 1000 м
[Ci fib]
+13.6 +12.5 93 +13 +13 1014.8 987.5
00 16.07 штиль 0 20 км ясно +21.2 +18.4 84 +25 +30 комфорт 1015.1 988.5 +10.4

 

Местоположение метеостанции Кербо (Эвенкия, Россия): широта 62.72 долгота 101.10 высота над уровнем моря 230 м.

В архиве по умолчанию представлена погода в Кербо за последнюю неделю. Архивные данные за месяц целиком и за предыдущие месяцы, начиная с января 2011 года, Вы можете получить, выбрав интересующий диапазон дат из раскрывающегося списка и нажав кнопку "Ввод!".


*Определитесь, кто Вы:
робот инопланетянин человек

Внимание! Время в таблицах - всемирное. Для получения местного времени необходимо прибавить поправку, которая равна 7 ч.

Смотрите также архив погоды в соседних городах и на ближайших метеорологических станциях:

Погода в Стрелке-Чуне (Эвенкия, Россия) (139 км)
Погода в Муторае (Эвенкия, Россия) (159 км)
Погода в Кислокане (Эвенкия, Россия) (170 км)
Погода в Туре (Эвенкия, Россия) (182 км)
Погода в Тембенчи (Эвенкия, Россия) (270 км)
Погода в Байките (Эвенкия, Россия) (272 км)
Погода в Ванаваре (Эвенкия, Россия) (273 км)
Погода в Усть-Камо (Эвенкия, Россия) (292 км)
Погода в Чемдальске (Красноярский край, Россия) (363 км)
Погода в Ербогачене (Иркутская область, Россия) (395 км)

Пояснения к столбцам:

Ветер - указаны скорость ветра в м/с - средняя за 10 мин, порывы в срок и между сроками (в фигурных скобках) и направление, откуда дует ветер: С - северный, СВ - северо-восточный, В - восточный, ЮВ - юго-восточный, Ю - южный, ЮЗ - юго-западный, З - западный, СЗ - северо-западный.
Видимость - горизонтальная дальность видимости в метрах или километрах. При видимости от 1 до 10 км при отсутствии осадков обычно наблюдается дымка, при ухудшении видимости до 1 км и менее - туман. В сухую погоду видимость может ухудшаться дымом, пылью или мглою.
Явления - указаны атмосферные явления, наблюдавшиеся в срок или в последний час перед сроком; фигурными скобками обозначены явления, наблюдавшиеся между сроками (за 1-3 часа до срока); квадратными скобками обозначены град или гололедные отложения с указанием их диаметра в мм.
Облачность - указаны через наклонную черту общая и нижняя облачность в баллах и высота нижней границы облаков в метрах; квадратными скобками обозначены формы облаков: Ci - перистые, Cs - перисто-слоистые, Cc - перисто-кучевые, Ac - высококучевые, As - высокослоистые, Sc - слоисто-кучевые, Ns - слоисто-дождевые, Cu - кучевые, Cb - кучево-дождевые. Подробнее классификацию облаков см. в Атласе облаков (PDF).
T - Температура воздуха - температура, измеренная на высоте 2 м над землей.
Td - Температура точки росы - температура, при понижении до которой содержащийся в воздухе водяной пар достигнет насыщения.
f - Относительная влажность воздуха - влажноcть воздуха, измеренная на высоте 2 м над землей.
Te - Эффективная температура - температура, которую ощущает одетый по сезону человек в тени. Характеристика душности погоды. При расчете учитывается влияние влажности воздуха и скорости ветра на теплоощущения человека.
Tes - Эффективная температура на солнце - температура, которую ощущает человек, с поправкой на солнечный нагрев. Характеристика знойности погоды. Зависит от высоты солнца над горизонтом, облачности и скорости ветра. Ночью, в пасмурную погоду, а также при ветре 12 м/с и более поправка равна нулю.
P - Атмосферное давление - приведенное к уровню моря атмосферное давление.
Po - Атмосферное давление - измеренное на уровне метеостанции атмосферное давление.
Tmin - Минимальная температура - минимум температуры воздуха на высоте 2 м над землей.
Tmax - Максимальная температура - максимум температуры воздуха на высоте 2 м над землей.
R - Количество осадков - Количество выпавших осадков за период времени, мм. При наведении курсора мыши на число - период времени, за который выпало указанное количество осадков.
R24 - Количество осадков - Количество выпавших осадков за 24 часа, мм.
S - Снежный покров - Высота снежного покрова, см. При наведении курсора мыши на число - состояние снежного покрова и степень покрытия местности в баллах.